Observer details:
568 Mauna Kea.  Observers S. S. Sheppard, D. C. Jewitt, Y. R. Fernandez,
    G. Magnier, S. Dahm, A. Evans.  Measurer S. S. Sheppard.  2.2-m University
    of Hawaii reflector + CCD.

Orbital elements:
S/2000 J 7
Epoch 2001 Apr. 1.0 TT = JDT 2452000.5                  Marsden
M  13.51059              (2000.0)            P               Q
n   0.57501826     Peri.  202.60056     +0.07021292     +0.84179658
a   0.1410321      Node   284.99206     +0.97882315     +0.04528518
e   0.1458198      Incl.  146.35342     +0.19228987     -0.53789196
P   1.71           H   14.8           P/d   626.07
Residuals in seconds of arc
K00BN  568  0.3-  0.0     K00BT  568  0.2-  0.1-    K00CF  568  0.2+  0.3-
K00BN  568  0.1-  0.2-    K00BT  568  0.0   0.0     K00CF  568  0.3-  0.5-
K00BN  568  0.1+  0.1+    K00C1  568  0.2-  0.0     K00CF  568  0.2+  0.3-
K00BP  568  0.0   0.3-    K00C1  568  0.1-  0.0     K00CF  568  0.2+  0.4-
K00BP  568  0.4+  0.3-    K00C3  568  0.2+  0.3+    K00CG  568  0.0   0.3-
K00BP  568  0.3+  0.3-    K00C3  568  0.1+  0.1+    K00CG  568  0.1-  0.3-
K00BP  568  0.0   0.1-    K00C5  568  0.1+  0.6+    K0111  568  0.0   0.3+
K00BR  568  0.0   0.1+    K00C5  568  0.0   0.5+    K0111  568  0.1-  0.1+
K00BR  568  0.3-  0.0     K00C5  568  0.1-  0.5+
K00BR  568  0.1+  0.1+    K00C5  568  0.1-  0.6+

S/2000 J 8
Epoch 2001 Apr. 1.0 TT = JDT 2452000.5                  Marsden
M 357.07432              (2000.0)            P               Q
n   0.49106120     Peri.  303.66947     +0.91600140     +0.03687905
a   0.1566806      Node   302.58327     +0.09040694     -0.98912748
e   0.5277172      Incl.  151.69961     -0.39085551     -0.14236136
P   2.01           H   15.0           P/d   733.11
Residuals in seconds of arc
K00BP  568  0.4-  0.2+    K00C3  568  0.4+  0.5-    K00CF  568  0.4-  0.0
K00BP  568  0.3-  0.3+    K00C3  568  0.4+  0.4-    K00CG  568  0.0   0.2+
K00BP  568  0.2-  0.3+    K00C5  568  0.1-  0.0     K00CG  568  0.0   0.1+
K00BR  568  0.2+  0.0     K00C5  568  0.2-  0.2+    K00CR  568  0.0   0.2+
K00BR  568  0.1+  0.1-    K00C5  568  0.0   0.0     K00CR  568  0.1+  0.1+
K00BT  568  0.2-  0.1+    K00C5  568  0.1-  0.0     K00CV  568  0.0   0.2-
K00BT  568  0.3+  0.1+    K00C5  568  0.0   0.1-    K00CV  568  0.1+  0.2-
K00C1  568  0.2+  0.3-    K00CF  568  0.3-  0.2+
K00C1  568  0.4+  0.4-    K00CF  568  0.1+  0.2+

S/2000 J 9
Epoch 2001 Apr. 1.0 TT = JDT 2452000.5                  Marsden
M 292.93053              (2000.0)            P               Q
n   0.55233501     Peri.  269.83625     +0.68592400     +0.69873154
a   0.1448674      Node   314.16830     +0.72764200     -0.65602953
e   0.2460425      Incl.  163.54516     +0.00673695     -0.28530596
P   1.78           H   15.4           P/d   651.78
Residuals in seconds of arc
K00BP  568  0.1-  0.2+    K00BT  568  0.1-  0.1-    K00C5  568  0.1-  0.1-
K00BP  568  0.0   0.0     K00BT  568  0.2-  0.0     K00CF  568  0.2-  0.1-
K00BP  568  0.2+  0.1+    K00C1  568  0.2-  0.3+    K00CF  568  0.1+  0.1-
K00BQ  568  0.1+  0.1-    K00C1  568  0.3-  0.1+    K00CF  568  0.0   0.1-
K00BQ  568  0.3+  0.1-    K00C3  568  0.0   0.1+    K00CF  568  0.3+  0.1-
K00BQ  568  0.3+  0.1-    K00C3  568  0.0   0.1-    K00CG  568  0.1+  0.0
K00BQ  568  0.1+  0.2-    K00C5  568  0.1+  0.0     K00CG  568  0.3+  0.2+
K00BS  568  0.1-  0.2+    K00C5  568  0.0   0.0     K0111  568  0.1-  0.1+
K00BS  568  0.0   0.1+    K00C5  568  0.0   0.0     K0111  568  0.1-  0.2+
K00BS  568  0.4-  0.1-    K00C5  568  0.2+  0.1-

S/2000 J 10
Epoch 2001 Apr. 1.0 TT = JDT 2452000.5                  Marsden
M 248.69952              (2000.0)            P               Q
n   0.60928386     Peri.  172.52190     +0.95513578     -0.27786499
a   0.1356935      Node   155.62290     -0.28296283     -0.75396001
e   0.1553197      Incl.  165.62039     -0.08745098     -0.59526074
P   1.62           H   15.7           P/d   590.86
Residuals in seconds of arc
K00BQ  568  0.1-  0.1+    K00C3  568  0.2-  0.4-    K00CG  568  0.2-  0.1-
K00BQ  568  0.3+  0.4+    K00C3  568  0.0   0.3-    K00CH  568  0.2+  0.2+
K00BQ  568  0.1+  0.3+    K00C5  568  0.1+  0.1-    K00CH  568  0.0   0.2+
K00BR  568  0.4-  0.4+    K00C5  568  0.0   0.4-    K00CR  568  0.2+  0.2+
K00BR  568  0.3+  0.1+    K00C5  568  0.2+  0.2-    K00CR  568  0.3+  0.1+
K00BT  568  0.3-  0.0     K00C5  568  0.2+  0.2-    K00CV  568  0.2-  0.0
K00BT  568  0.1+  0.1+    K00C5  568  0.4+  0.2-    K00CV  568  0.1-  0.2-
K00C1  568  0.2-  0.3-    K00CG  568  0.4-  0.1+
K00C1  568  0.1-  0.3-    K00CG  568  0.1-  0.2+

S/2000 J 11
Epoch 2001 Apr. 1.0 TT = JDT 2452000.5                  Marsden
M 173.32322              (2000.0)            P               Q
n   1.24251630     Peri.  178.01785     -0.32769561     -0.83257282
a   0.0843796      Node   290.87294     +0.86011324     -0.06731315
e   0.2152076      Incl.   28.55170     +0.39092301     -0.54981036
P   0.79           H   16.1           P/d   289.73
Residuals in seconds of arc
K00C5  568  0.0   0.1+    K00C7  568  0.1-  0.3+    K00CL  568  0.1+  0.2-
K00C5  568  0.3+  0.0     K00C7  568  0.0   0.2-    K00CL  568  0.3+  0.0
K00C5  568  0.1-  0.1-    K00C7  568  0.1-  0.3+    K00CV  568  0.3-  0.0
K00C5  568  0.3-  0.2-    K00CG  568  0.1-  0.0     K00CV  568  0.2+  0.0
K00C6  568  0.2+  0.2-    K00CH  568  0.4-  0.1+
K00C6  568  0.2+  0.1-    K00CH  568  0.1+  0.3+

Ephemerides:
    S/2000 J 7                                                   q = 0.1205
Date    TT    R. A. (2000) Decl.     Delta     r_J   dR.A. ("/m)  dDecl. ("/')
2001 01 01    04 06.95   +20 31.8    4.288    0.126  4975+/5.90+  2612+/ 43.5+
2001 01 11    04 03.84   +20 18.5    4.412    0.124  4666+/5.53+  2136+/ 35.6+
2001 01 21    04 02.02   +20 08.7    4.554    0.122  4289+/5.08+  1637+/ 27.3+
2001 01 31    04 01.55   +20 03.0    4.711    0.120  3849+/4.55+  1127+/ 18.8+
2001 02 10    04 02.43   +20 01.3    4.876    0.119  3351+/3.96+   620+/ 10.3+
2001 02 20    04 04.58   +20 03.4    5.044    0.117  2802+/3.31+   126+/  2.1+
2001 03 02    04 07.92   +20 09.1    5.212    0.116  2212+/2.62+   344-/  5.7-
2001 03 12    04 12.34   +20 17.6    5.374    0.115  1590+/1.88+   781-/ 13.0-
2001 03 22    04 17.71   +20 28.5    5.526    0.114   951+/1.13+  1178-/ 19.6-
2001 04 01    04 23.95   +20 41.2    5.666    0.114   306+/0.36+  1526-/ 25.4-
2001 04 11    04 30.93   +20 55.0    5.790    0.114   329-/0.39-  1822-/ 30.4-
2001 04 21    04 38.57   +21 09.4    5.897    0.114   938-/1.12-  2061-/ 34.3-

    S/2000 J 8                                                   q = 0.0740
Date    TT    R. A. (2000) Decl.     Delta     r_J   dR.A. ("/m)  dDecl. ("/')
2001 01 01    04 06.83   +19 52.7    4.330    0.137  4893+/5.78+   268+/  4.5+
2001 01 11    04 03.26   +19 41.7    4.444    0.128  4194+/4.95+    70-/  1.2-
2001 01 21    04 01.00   +19 34.7    4.577    0.120  3441+/4.06+   405-/  6.7-
2001 01 31    04 00.11   +19 32.1    4.723    0.111  2644+/3.12+   726-/ 12.1-
2001 02 10    04 00.61   +19 33.9    4.877    0.101  1816+/2.14+  1020-/ 17.0-
2001 02 20    04 02.41   +19 40.1    5.033    0.093   969+/1.14+  1272-/ 21.2-
2001 03 02    04 05.45   +19 50.5    5.186    0.084   128+/0.15+  1460-/ 24.3-
2001 03 12    04 09.65   +20 04.6    5.331    0.077   673-/0.80-  1562-/ 26.0-
2001 03 22    04 14.95   +20 22.3    5.465    0.071  1380-/1.64-  1549-/ 25.8-
2001 04 01    04 21.30   +20 43.2    5.584    0.068  1921-/2.28-  1404-/ 23.4-
2001 04 11    04 28.66   +21 06.6    5.688    0.069  2234-/2.66-  1128-/ 18.8-
2001 04 21    04 36.94   +21 31.2    5.777    0.073  2294-/2.74-   752-/ 12.5-

    S/2000 J 9                                                   q = 0.1092
Date    TT    R. A. (2000) Decl.     Delta     r_J   dR.A. ("/m)  dDecl. ("/')
2001 01 01    04 08.77   +20 38.2    4.166    0.163  6508+/7.73+  2998+/ 50.0+
2001 01 11    04 06.00   +20 30.3    4.289    0.161  6482+/7.69+  2846+/ 47.4+
2001 01 21    04 04.55   +20 25.9    4.433    0.159  6418+/7.61+  2666+/ 44.4+
2001 01 31    04 04.48   +20 25.2    4.592    0.157  6316+/7.49+  2460+/ 41.0+
2001 02 10    04 05.79   +20 28.2    4.761    0.155  6174+/7.32+  2233+/ 37.2+
2001 02 20    04 08.37   +20 34.5    4.936    0.152  5990+/7.11+  1990+/ 33.2+
2001 03 02    04 12.14   +20 43.7    5.113    0.149  5760+/6.84+  1734+/ 28.9+
2001 03 12    04 16.97   +20 55.1    5.286    0.146  5481+/6.52+  1468+/ 24.5+
2001 03 22    04 22.72   +21 08.1    5.453    0.144  5151+/6.14+  1196+/ 19.9+
2001 04 01    04 29.27   +21 22.0    5.610    0.141  4766+/5.69+   922+/ 15.4+
2001 04 11    04 36.50   +21 36.2    5.754    0.138  4328+/5.17+   650+/ 10.8+
2001 04 21    04 44.27   +21 50.2    5.882    0.135  3835+/4.59+   384+/  6.4+

    S/2000 J 10                                                  q = 0.1146
Date    TT    R. A. (2000) Decl.     Delta     r_J   dR.A. ("/m)  dDecl. ("/')
2001 01 01    04 09.82   +20 13.7    4.245    0.156  7409+/8.77+  1528+/ 25.5+
2001 01 11    04 06.76   +20 10.6    4.368    0.156  7136+/8.45+  1660+/ 27.7+
2001 01 21    04 04.99   +20 10.7    4.510    0.155  6803+/8.05+  1752+/ 29.2+
2001 01 31    04 04.60   +20 14.2    4.668    0.155  6420+/7.60+  1804+/ 30.1+
2001 02 10    04 05.57   +20 21.3    4.835    0.154  5996+/7.11+  1820+/ 30.3+
2001 02 20    04 07.83   +20 31.4    5.008    0.153  5535+/6.57+  1806+/ 30.1+
2001 03 02    04 11.29   +20 44.2    5.181    0.151  5041+/5.99+  1765+/ 29.4+
2001 03 12    04 15.83   +20 59.1    5.350    0.149  4520+/5.38+  1705+/ 28.4+
2001 03 22    04 21.32   +21 15.3    5.512    0.147  3971+/4.73+  1631+/ 27.2+
2001 04 01    04 27.65   +21 32.4    5.663    0.144  3400+/4.06+  1548+/ 25.8+
2001 04 11    04 34.68   +21 49.7    5.800    0.142  2808+/3.36+  1460+/ 24.3+
2001 04 21    04 42.32   +22 06.6    5.921    0.139  2200+/2.64+  1373+/ 22.9+

